This demonstration page uses our WeatherBlox Daily Observations layout. Learn more.

Left ArrowRight Arrow

Hourly Observations for April 26, 2021

Temp ( °F °C ) Dew Point ( °F °C ) Humidity (%) Winds ( mph kmh ) Pressure ( in mb ) Visibility ( mi km ) Precip ( " mm )
12:56 am 00:56 Clear 62 16.7 53 11.7 73 73 SSE 18 30 29.53 1000 10 16 0.00 0.00
1:56 am 01:56 Clear 61 16.1 53 11.7 75 75 SSE 17 28 29.49 999 10 16 0.00 0.00
2:56 am 02:56 Clear 60 15.6 53 11.7 78 78 SSE 17 28 29.45 997 10 16 0.00 0.00
3:56 am 03:56 Clear 59 15 53 11.7 81 81 SSE 16 26 29.42 996 10 16 0.00 0.00
4:56 am 04:56 Clear 56 13.3 52 11.1 87 87 S 12 19 29.41 996 10 16 0.00 0.00
5:56 am 05:56 Clear 55 12.8 52 11.1 90 90 SSW 6 9 29.42 996 10 16 0.00 0.00
6:56 am 06:56 Sunny 51 10.6 49 9.4 92 92 S 8 13 29.42 996 10 16 0.00 0.00
7:56 am 07:56 Sunny 56 13.3 51 10.6 84 84 SW 9 15 29.44 997 10 16 0.00 0.00
8:56 am 08:56 Sunny 61 16.1 50 10 67 67 SW 9 15 29.46 998 10 16 0.00 0.00
9:56 am 09:56 Sunny 65 18.3 48 8.9 54 54 SSW 13 20 29.47 998 10 16 0.00 0.00
10:56 am 10:56 Sunny 70 21.1 49 9.4 47 47 WSW 13 20 29.48 998 10 16 0.00 0.00
11:56 am 11:56 Sunny 75 23.9 50 10 41 41 WSW 7 11 29.49 999 10 16 0.00 0.00
12:56 pm 12:56 Sunny 79 26.1 49 9.4 35 35 SW 5 7 29.47 998 10 16 0.00 0.00
1:56 pm 13:56 Sunny 82 27.8 46 7.8 28 28 SSW 3 6 29.44 997 10 16 0.00 0.00
2:56 pm 14:56 Sunny 89 31.7 41 5 19 19 W 7 11 29.41 996 10 16 0.00 0.00
3:56 pm 15:56 Sunny 90 32.2 33 0.6 13 13 S 15 24 29.39 995 10 16 0.00 0.00
4:56 pm 16:56 Sunny 91 32.8 25 -3.9 9 9 SW 15 24 29.38 995 10 16 0.00 0.00
5:56 pm 17:56 Sunny 90 32.2 29 -1.7 11 11 S 16 26 29.37 995 10 16 0.00 0.00
6:56 pm 18:56 Sunny 87 30.6 34 1.1 15 15 SSE 16 26 29.38 995 10 16 0.00 0.00
7:56 pm 19:56 Sunny 80 26.7 38 3.3 22 22 ESE 8 13 29.38 995 10 16 0.00 0.00
8:56 pm 20:56 Clear 73 22.8 42 5.6 33 33 ESE 10 17 29.39 995 10 16 0.00 0.00
9:56 pm 21:56 Clear 70 21.1 47 8.3 44 44 Calm 29.41 996 10 16 0.00 0.00
10:56 pm 22:56 Clear 73 22.8 56 13.3 55 55 VRB 7 11 29.42 996 10 16 0.00 0.00
11:56 pm 23:56 Clear 68 20 56 13.3 65 65 ESE 6 9 29.42 996 10 16 0.00 0.00

Powered by AerisWeather